Location: ?????
(41.9817°N, 44.7439°E)
Time: 09:49:29
(UTC+00:00)

Daily predictions for brighter satellites

Satellite Brightness Start Highest point End
(mag) Time Altitude Azimuth Time Altitude Azimuth Time Altitude Azimuth
USA 234 3.8 13:51:47 10° E 13:57:42 38° NNE 14:03:36 10° NW
ISS -3.8 13:56:51 10° NW 14:00:15 72° NE 14:03:37 10° ESE
Cosmos 1697 Rocket 3.1 13:57:01 10° NNW 14:02:36 69° WSW 14:08:09 10° SSE
Cosmos 1340 Rocket 4.4 13:59:47 10° NNW 14:03:38 41° W 14:07:28 10° SSW
Cosmos 2322 Rocket 3.7 14:01:16 10° N 14:04:46 16° NE 14:08:16 10° E
CZ-2C R/B 3.1 14:02:25 10° SW 14:05:59 25° SSE 14:09:28 10° ESE
Cosmos 372 Rocket 4.0 14:01:07 10° NNW 14:06:21 64° ENE 14:11:33 10° SSE
Cosmos 1743 Rocket 4.3 14:02:41 10° NNW 14:06:57 58° W 14:11:12 10° S
Cosmos 1937 Rocket 3.7 14:02:09 10° NNW 14:07:29 80° WSW 14:12:46 10° SSE
Meteor PRIRODA 3.7 14:04:24 10° S 14:08:02 83° WSW 14:11:40 10° NNW
Cosmos 1634 Rocket 4.0 14:02:18 10° S 14:08:35 72° E 14:14:53 10° NNE
Cosmos 1980 Rocket 2.2 14:03:08 10° NNW 14:08:48 69° ENE 14:14:23 10° SSE
Cosmos 2026 Rocket 3.9 14:03:50 10° N 14:09:57 73° E 14:15:59 10° SSE
Meteor 1-26 Rocket 4.4 14:04:28 10° S 14:10:27 78° E 14:16:31 10° NNE
CORIOLIS 4.3 14:06:12 10° SSE 14:11:26 54° ENE 14:16:43 10° N
Cosmos 1809 Rocket 4.4 14:05:55 10° N 14:12:03 84° E 14:18:07 10° S
Lacrosse 5 rocket 2.2 14:09:46 10° NNW 14:13:15 29° NE 14:16:53 10° E
AQUARIUS 4.3 14:08:58 10° SSE 14:13:17 50° ENE 14:17:39 10° N
Cosmos 1328 Rocket 4.3 14:11:41 10° SSE 14:15:41 33° E 14:19:40 10° NNE
H-2A R/B 2.6 14:12:05 10° SE 14:16:41 35° ENE 14:21:12 10° N
Meteor 2-21 Rocket 4.5 14:11:25 10° N 14:17:25 58° ENE 14:23:21 10° SSE
Cosmos 1666 Rocket 3.8 14:13:58 10° N 14:18:15 46° ENE 14:22:27 10° SSE
Cosmos 2369 4.0 14:14:31 10° NNW 14:20:15 77° WSW 14:25:56 10° SSE
CZ-2C R/B 3.6 14:18:24 10° S 14:23:11 58° W 14:27:53 10° NNW
Tiangong 3.6 14:22:54 10° SSE 14:23:56 11° SSE 14:24:59 10° SE
Okean O Rocket 2.8 14:21:32 10° ESE 14:24:54 21° ENE 14:28:16 10° NNE
Cosmos 1812 2.6 14:21:42 10° S 14:25:30 71° E 14:29:21 10° NNE
SL-16 R/B 3.0 14:20:52 10° N 14:25:44 28° NE 14:30:33 10° ESE
Cosmos 2082 Rocket 2.6 14:20:05 10° SSW 14:25:44 67° WNW 14:31:24 10° NNE
PSLV R/B 4.0 14:22:31 10° SE 14:26:02 44° ENE 14:29:37 10° N
ARGOS 4.0 14:22:24 10° ESE 14:26:56 28° ENE 14:31:27 10° N
Cosmos 1544 4.4 14:25:07 10° NNE 14:27:43 18° ENE 14:30:19 10° ESE
FengYun 1-2 T 4.5 14:24:03 10° S 14:29:38 77° WSW 14:35:11 10° NNW
Meteor 1-5 Rocket 4.3 14:25:13 10° N 14:31:09 61° ENE 14:36:54 10° SSE
USA 308 4.3 14:27:55 10° NNW 14:31:15 22° NNE 14:33:16 16° NE
COSMOS 2455 3.6 14:25:31 10° SW 14:31:20 50° NW 14:37:13 10° NNE
ATLAS CENTAUR R/B 4.0 14:22:13 10° WSW 14:31:42 41° NW 14:35:52 10° NNE
X-37B 1.0 14:30:59 10° SW 14:33:46 43° SSE 14:35:22 21° E
Sich 1 3.6 14:29:48 10° NNW 14:34:04 61° W 14:38:20 10° S
NOAA 6 4.1 14:30:29 10° SSE 14:35:37 84° WSW 14:40:47 10° NNW
SMAP 3.2 14:31:33 10° S 14:36:12 79° WSW 14:40:52 10° NNW
SKYMED 2 4.2 14:33:29 10° NNE 14:37:27 34° E 14:41:25 10° SSE
deb Chang Zheng 4 4.1 14:37:36 10° SE 14:41:29 34° ENE 14:45:23 10° N
Cosmos 2278 3.7 14:37:03 10° NNW 14:42:47 89° WSW 14:48:27 10° SSE
Aureole 3 Rocket 4.4 14:39:26 10° SE 14:43:08 25° E 14:47:55 10° NNE
CZ-4B DEB 4.2 14:37:44 10° SSE 14:43:15 86° ENE 14:48:45 10° NNW
Cosmos 2180 Rocket 4.5 14:37:45 10° S 14:44:00 65° E 14:50:12 10° NNE
Cosmos 2333 Rocket 4.1 14:42:29 10° NNE 14:44:00 12° NE 14:44:00 12° NE
Cosmos 1655 Rocket 4.2 14:42:42 10° N 14:48:51 48° ENE 14:54:56 10° SSE
CZ-2C R/B 2.7 14:45:10 10° NNE 14:50:13 51° E 14:55:14 10° S
Meteor 1-14 Rocket 4.5 14:48:42 10° NNW 14:54:36 78° W 15:00:33 10° S
USA 305 3.9 14:52:13 10° NW 14:55:55 28° NNE 14:56:50 26° NE
Cosmos 1356 Rocket 3.9 14:54:33 10° N 14:58:31 38° ENE 15:02:29 10° SE
Cosmos 44 Rocket 3.1 14:55:24 10° NNW 15:00:19 82° ENE 15:05:03 10° SE
MOS 1-B Rocket 4.2 14:56:22 10° NNE 15:02:32 89° ESE 15:09:42 10° SSW
Cosmos 1515 Rocket 3.6 14:58:12 10° S 15:02:34 59° E 15:06:04 15° NNE
Cosmos 921 Rocket 3.0 15:01:28 10° SSW 15:05:39 78° WNW 15:09:08 15° NNE
USA 267 3.8 15:03:05 17° NE 15:08:05 53° NNW 15:14:24 10° WSW
CZ-4B R/B 3.0 15:04:04 10° SSE 15:09:27 78° ENE 15:14:47 10° NNW
CZ-4 R/B 4.4 15:07:29 10° SSE 15:11:32 59° ENE 15:15:37 10° N
Meteor 2-15 Rocket 4.3 15:07:04 10° S 15:13:08 70° E 15:19:13 10° NNE
Cosmos 2298 Rocket 3.9 15:11:38 10° NNW 15:17:00 86° ENE 15:22:19 10° SSE
Meteor 1-27 Rocket 3.7 15:12:24 10° S 15:17:46 58° E 15:21:31 20° NNE
CZ-2D R/B 4.5 15:14:55 10° S 15:18:34 43° W 15:22:14 10° NNW
YAOGAN 3 4.4 15:15:49 10° SSE 15:20:10 79° ENE 15:24:32 10° N
APEX 3.8 15:21:07 10° SW 15:24:48 47° WNW 15:25:44 36° NNW
Cosmos 836 Rocket 4.4 15:19:33 10° SSW 15:24:51 82° ESE 15:27:44 28° NNE
SJ-11-01 4.2 15:20:49 10° SSE 15:25:33 89° WSW 15:30:20 10° NNW
COSMO-SKYMED 1 2.8 15:21:57 14° N 15:25:36 70° WNW 15:29:55 10° SSW
Cosmos 2360 Rocket 2.7 15:21:38 10° N 15:26:26 37° NE 15:26:26 37° NE
CZ-4C R/B 4.2 15:29:53 30° S 15:29:53 30° S 15:31:45 10° S
USA 306 3.6 15:24:23 10° NW 15:27:50 38° N 15:27:50 38° N
Landsat 5 3.2 15:28:30 49° NNE 15:29:33 89° ESE 15:33:27 10° SSW
Cosmos 2237 4.2 15:24:22 10° NNW 15:29:58 54° ENE 15:31:35 41° ESE
Cosmos 1818 4.2 15:28:30 10° NW 15:33:51 55° WSW 15:39:07 10° SSE
Genesis I 4.2 15:30:51 10° SSW 15:33:28 36° SSE 15:33:28 36° SSE
ISS -0.7 15:34:46 10° W 15:36:40 14° SW 15:38:34 10° SSW
Cosmos 2266 Rocket 4.2 15:31:56 10° N 15:38:21 77° W 15:44:45 10° S
DMSP B5D2-2 4.0 15:38:47 57° E 15:38:57 57° E 15:44:06 10° S
USA 234 3.3 15:35:11 18° SE 15:40:20 82° SW 15:46:54 10° NW
CZ-4C R/B 4.1 15:33:18 10° NW 15:40:30 47° WSW 15:48:35 10° S
ATLAS 2AS CENTAUR R/B 4.4 15:39:23 10° NNW 15:43:52 18° NNE 15:43:52 18° NNE
SL-08 RB Rocket 3.7 15:40:12 10° S 15:44:50 82° WSW 15:49:27 10° NNW
CZ-2C R/B 2.6 15:41:14 10° WSW 15:45:02 31° S 15:45:03 31° S
USA 307 4.1 15:44:51 10° NW 15:47:30 33° NNW 15:47:30 33° NNW
Cosmos 2322 Rocket 2.1 15:43:53 10° NNW 15:49:38 89° WSW 15:52:59 26° SSE
NOSS 3-3 (A) 3.7 15:44:06 10° SSW 15:49:41 82° ESE 15:50:53 59° NE
NOSS 3-3 (C) 3.7 15:44:12 10° SSW 15:49:48 82° ESE 15:50:58 60° NE
NOAA 15 4.4 15:45:28 10° SSE 15:50:45 80° ENE 15:56:03 10° NNW
Lacrosse 5 rocket 2.5 15:48:37 10° WNW 15:52:25 41° SW 15:53:16 36° SSW
Cosmos 1933 Rocket 4.2 15:49:26 10° NNW 15:53:39 53° W 15:57:51 10° S
H-2A R/B 4.0 15:51:46 10° SSW 15:56:07 28° W 16:00:26 10° NW
Cosmos 1867 3.9 15:51:07 10° SW 15:56:31 64° NW 15:57:45 50° N
Cosmos 1125 Rocket 4.5 15:53:53 10° NNW 15:58:54 46° WSW 16:03:55 10° S
Tiangong 3.9 15:57:11 10° SW 15:58:00 16° SW 15:58:00 16° SW
Okean O Rocket 3.0 15:56:51 10° SSW 16:00:59 38° W 16:05:10 10° NNW
Meteor 1-11 Rocket 4.5 15:56:07 10° NNW 16:01:36 53° W 16:07:12 10° S
ARGOS 4.4 16:01:56 10° SSW 16:06:59 40° W 16:12:04 10° NNW
X-37B 4.0 16:06:25 10° W 16:06:35 11° W 16:06:35 11° W
SL-16 R/B 3.2 16:04:37 10° NW 16:10:00 45° WSW 16:15:21 10° S
Cosmos 2333 Rocket 4.1 16:24:22 10° NNW 16:26:02 20° NNW 16:26:02 20° NNW
BREEZE-M DEB (TANK) 4.2 16:09:40 10° WSW 16:33:29 71° NW 16:34:34 63° NNE
Cosmos 2219 Rocket 4.5 16:32:37 10° NNW 16:33:20 14° NNW 16:33:20 14° NNW
Cosmos 2360 Rocket 4.2 17:05:49 10° NW 17:08:17 22° WNW 17:08:17 22° WNW
